User: anonymous   Login
Location: Unspecified
(0.0000°N, 0.0000°E)
Time: 05:30:27
(UTC+00:00)
Language:

USA 255 - Orbit

View from above orbital plane
View from above orbital plane
View from above satellite
View from above satellite

Ground track
Ground track

The orbit data is extracted from the following two-line orbital elements,

1 40101U 14043C   20057.57820897 -.00000247 +00000-0 +00000-0 0  9992
2 40101 003.8549 074.2136 0015274 268.2821 184.3139 00.98727145002574
Epoch (UTC): 26 February 2020 13:52:37
Eccentricity: 0.0015274
inclination: 3.8549°
perigee height: 36160 km
apogee height: 36290 km
right ascension of ascending node: 74.2136°
argument of perigee: 268.2821°
revolutions per day: 0.98727145
mean anomaly at epoch: 184.3139°
orbit number at epoch: 257

The dashed part of the orbit path shows where the satellite is in the earth's shadow,  

DLR